DateTimeUTC,F1_A11,F1_S11,BsB_S11,BsG_S11,BsR_S11,BbsB_S11,BbsG_S11,BbsR_S11,BaB_A11,BaG_A11,BaR_A11,Tu_S11,T_S11,Uu_S11,U_S11,P_S11,T1_A11
2021-07-02T21:00:00Z,00000200,20000000,,,,,,,0000.01,-000.23,0000.16,19.2,25.9,06.4,04.3,0674.8,31.2
2021-07-02T21:01:00Z,00000200,20000000,,,,,,,0000.32,-000.05,0000.44,19.2,25.9,06.5,04.3,0674.8,31.2
2021-07-02T21:02:00Z,00000200,20000000,,,,,,,-000.20,-000.02,-000.20,19.2,25.9,06.5,04.3,0674.8,31.2
2021-07-02T21:03:00Z,00000200,60000000,,,,,,,0000.06,0000.12,0000.09,19.2,25.9,06.5,04.3,0674.8,31.1
2021-07-02T21:04:00Z,00000200,40000000,-000.21,0000.55,-000.13,0000.33,0000.00,-000.18,0000.22,-000.11,-000.01,19.2,25.7,06.5,04.4,0675.7,31.1
2021-07-02T21:05:00Z,00000200,00000000,0000.72,0000.41,0000.31,0000.76,0000.47,0000.04,-000.01,0000.41,0000.09,19.2,25.6,06.5,04.4,0675.8,31.1
2021-07-02T21:06:00Z,00000200,00000000,0001.07,0000.32,0000.44,0000.25,0000.17,-000.07,0000.28,-000.27,-000.16,19.2,25.6,06.4,04.4,0675.8,31.1
2021-07-02T21:07:00Z,00000200,00000000,0001.52,0000.53,0000.26,0000.11,0000.37,0000.25,-000.11,0000.42,0000.25,19.2,25.6,06.5,04.4,0675.8,31.1
2021-07-02T21:08:00Z,00000200,00000000,0000.66,0000.51,0000.34,0000.22,0000.09,0000.12,0000.18,0000.28,0000.10,19.2,25.5,06.6,04.5,0675.8,31.1
2021-07-02T21:09:00Z,00000200,00000000,0000.57,0000.53,0000.51,0000.46,0000.07,0000.09,0000.34,-000.10,0000.14,19.3,25.6,06.5,04.4,0675.8,31.2
2021-07-02T21:10:00Z,00000200,00000000,0000.56,0000.55,0000.06,0000.24,0000.14,0000.25,0000.25,0000.20,0000.18,19.3,25.6,06.5,04.4,0675.8,31.2
2021-07-02T21:11:00Z,00000200,00000000,0000.44,0000.42,0000.16,0000.85,0000.20,-000.05,-000.00,0000.05,-000.00,19.4,25.7,06.4,04.4,0675.8,31.2
2021-07-02T21:12:00Z,00000200,00000000,0000.97,0000.29,0000.54,0000.37,-000.08,-000.11,-000.09,-000.15,-000.01,19.4,25.7,06.4,04.4,0675.8,31.2
2021-07-02T21:13:00Z,00000200,00000000,0000.05,0000.85,0000.58,0000.43,0000.03,0000.29,-000.11,0000.30,-000.16,19.5,25.7,06.3,04.3,0675.8,31.2
2021-07-02T21:14:00Z,00000200,00000000,0001.02,0000.42,0000.07,0000.19,-000.02,-000.22,0000.33,-000.02,0000.36,19.4,25.7,06.4,04.4,0675.8,31.2
2021-07-02T21:15:00Z,00000200,00000000,0000.83,0000.34,0000.06,0000.27,0000.26,0000.09,0000.21,0000.37,-000.06,19.4,25.6,06.4,04.4,0675.8,31.2
2021-07-02T21:16:00Z,00000200,00000000,0000.28,0000.32,-000.03,-000.42,0000.00,0000.00,-000.10,0000.08,0000.20,19.4,25.6,06.4,04.4,0675.8,31.2
2021-07-02T21:17:00Z,00000200,00000000,0000.61,0000.82,-000.11,0000.25,0000.08,-000.25,0000.23,0000.05,-000.09,19.4,25.6,06.3,04.3,0675.7,31.1
2021-07-02T21:18:00Z,00000200,00000000,0000.74,0000.43,0000.48,0000.23,0000.22,0000.01,-000.12,-000.01,0000.20,19.3,25.6,06.3,04.3,0675.7,31.1
2021-07-02T21:19:00Z,00000200,00000000,0000.12,0000.27,0000.20,0000.50,0000.53,-000.29,0000.39,-000.06,-000.06,19.3,25.6,06.3,04.3,0675.7,31.1
2021-07-02T21:20:00Z,00000200,00000000,0001.12,0000.41,0000.30,0000.13,0000.13,0000.21,0000.22,-000.08,0000.29,19.3,25.6,06.3,04.3,0675.7,31.1
2021-07-02T21:21:00Z,00000200,00000000,0000.32,0000.09,0000.33,0000.59,0000.16,-000.02,-000.36,0000.24,-000.29,19.2,25.5,06.4,04.4,0675.8,31.1
2021-07-02T21:22:00Z,00000200,00000000,0000.85,0000.44,0000.38,0000.70,0000.19,-000.30,0000.45,0000.15,0000.37,19.2,25.5,06.4,04.3,0675.7,31.1
2021-07-02T21:23:00Z,00000200,00000000,0000.51,0000.26,0000.31,0000.64,0000.17,-000.08,-000.07,-000.03,0000.03,19.2,25.5,06.4,04.3,0675.7,31.1
2021-07-02T21:24:00Z,00000200,00000000,0000.78,0000.65,0000.49,0000.18,-000.01,-000.12,0000.16,0000.22,0000.39,19.3,25.5,06.3,04.3,0675.8,31.2
2021-07-02T21:25:00Z,00000200,00000000,-000.14,0000.44,0000.33,0000.11,0000.02,0000.09,0000.31,0000.57,-000.11,19.4,25.6,06.3,04.3,0675.8,31.2
2021-07-02T21:26:00Z,00000200,00000000,0000.16,0000.46,0000.66,0000.29,0000.30,0000.13,0000.03,-000.15,0000.24,19.4,25.6,06.3,04.3,0675.9,31.2
2021-07-02T21:27:00Z,00000200,00000000,0000.43,0000.24,0000.09,0000.21,0000.28,0000.16,0000.33,0000.25,-000.02,19.5,25.7,06.3,04.3,0675.8,31.2
2021-07-02T21:28:00Z,00000200,00000000,0000.10,0000.51,0000.26,0000.02,0000.05,-000.02,-000.16,-000.19,0000.13,19.5,25.7,06.3,04.3,0675.8,31.2
2021-07-02T21:29:00Z,00000200,00000000,0000.31,0000.52,0000.36,0000.36,0000.09,0000.12,0000.03,0000.02,-000.21,19.5,25.7,06.3,04.3,0675.8,31.2
2021-07-02T21:30:00Z,00000200,00000000,0000.47,0000.43,0000.13,0000.11,-000.03,-000.35,0000.32,0000.10,0000.12,19.4,25.6,06.3,04.3,0675.8,31.2
2021-07-02T21:31:00Z,00000200,00000000,0000.30,0000.44,0000.41,0000.42,0000.23,-000.09,0000.04,0000.19,0000.01,19.4,25.6,06.2,04.3,0675.9,31.2
2021-07-02T21:32:00Z,00000200,00000000,0000.20,0000.53,0000.30,-000.04,0000.19,0000.06,-000.08,0000.18,0000.15,19.4,25.6,06.3,04.3,0675.9,31.1
2021-07-02T21:33:00Z,00000200,00000000,0000.21,0000.31,0000.48,0000.52,-000.08,0000.25,0000.32,0000.20,0000.32,19.3,25.6,06.3,04.3,0675.8,31.1
2021-07-02T21:34:00Z,00000200,00000000,0001.53,0000.69,0000.37,0000.13,0000.27,0000.11,0000.11,0000.05,0000.01,19.3,25.6,06.3,04.3,0675.8,31.1
2021-07-02T21:35:00Z,00000200,00000000,0000.49,0000.37,0000.03,-000.12,0000.21,-000.07,0000.05,0000.04,-000.28,19.3,25.5,06.2,04.2,0675.8,31.1
2021-07-02T21:36:00Z,00000200,00000000,0000.61,0000.37,0000.41,0000.45,0000.10,0000.25,-000.16,-000.06,0000.37,19.2,25.5,06.2,04.2,0675.8,31.1
2021-07-02T21:37:00Z,00000200,00000000,0000.33,0000.50,0000.37,0000.72,0000.29,0000.03,0000.13,-000.04,-000.12,19.2,25.5,06.2,04.2,0675.8,31.1
2021-07-02T21:38:00Z,00000200,00000000,0000.48,0000.58,0000.41,0000.45,-000.03,0000.02,0000.34,0000.16,0000.21,19.2,25.5,06.1,04.1,0675.8,31.1
2021-07-02T21:39:00Z,00000200,00000000,0000.72,0000.68,0000.77,0000.61,0000.26,0000.13,0000.08,0000.45,0000.21,19.3,25.5,06.1,04.2,0675.8,31.1
2021-07-02T21:40:00Z,00000200,00000000,0000.74,0000.33,0000.50,-000.17,-000.08,0000.20,0000.09,0000.32,0000.26,19.4,25.6,06.1,04.2,0675.8,31.2
2021-07-02T21:41:00Z,00000200,00000000,0000.99,0000.55,0000.32,0000.23,-000.13,-000.33,-000.01,-000.62,0000.00,19.4,25.6,06.0,04.1,0675.8,31.2
2021-07-02T21:42:00Z,00000200,00000000,0000.78,0000.62,0000.34,0000.27,0000.01,0000.17,0000.16,0000.33,-000.49,19.5,25.6,06.0,04.1,0675.8,31.2
2021-07-02T21:43:00Z,00000200,00000000,0000.61,0000.73,0000.40,-000.03,0000.35,0000.26,-000.18,0000.06,0000.37,19.5,25.7,05.9,04.1,0675.8,31.2
2021-07-02T21:44:00Z,00000200,00000000,0000.76,0000.77,0000.24,0000.25,0000.16,-000.01,0000.17,0000.28,-000.48,19.4,25.6,05.9,04.0,0675.8,31.2
2021-07-02T21:45:00Z,00000200,00000000,0000.35,0000.58,0000.39,0000.44,0000.18,0000.04,0000.18,0000.09,0000.59,19.4,25.6,05.9,04.0,0675.8,31.2
2021-07-02T21:46:00Z,00000200,00000000,0000.72,0000.47,0000.39,-000.03,0000.13,-000.00,0000.21,-000.10,0000.34,19.4,25.6,05.9,04.0,0675.8,31.2
2021-07-02T21:47:00Z,00000200,00000000,0000.56,0000.38,0000.16,0000.09,0000.05,0000.31,0000.37,0000.27,-000.11,19.3,25.6,06.0,04.1,0675.8,31.1
2021-07-02T21:48:00Z,00000200,00000000,0000.52,0000.41,0000.39,0000.22,0000.03,0000.27,-000.03,-000.09,0000.13,19.3,25.6,06.0,04.1,0675.8,31.1
2021-07-02T21:49:00Z,00000200,00000000,0001.26,0000.48,0000.50,0000.63,0000.02,0000.08,0000.21,0000.36,0000.08,19.3,25.5,06.0,04.1,0675.7,31.1
2021-07-02T21:50:00Z,00000200,00000000,0000.92,0000.38,0000.13,0000.31,0000.18,0000.23,0000.21,0000.27,0000.31,19.3,25.5,05.9,04.0,0675.7,31.1
2021-07-02T21:51:00Z,00000200,00000000,0001.32,0000.39,0000.27,-000.13,0000.06,-000.06,0000.34,0000.21,-000.08,19.2,25.5,06.1,04.1,0675.7,31.1
2021-07-02T21:52:00Z,00000200,00000000,0001.12,0000.44,0000.10,0000.13,0000.21,-000.06,-000.31,-000.50,0000.24,19.2,25.5,06.1,04.2,0675.7,31.2
2021-07-02T21:53:00Z,00000200,00000000,0000.83,0000.35,0000.55,-000.14,0000.18,-000.11,0000.45,0000.55,0000.07,19.2,25.5,06.1,04.1,0675.7,31.2
2021-07-02T21:54:00Z,00000200,00000000,0000.88,0000.41,0000.14,-000.06,-000.07,0000.07,0000.09,0000.45,0000.20,19.3,25.5,06.1,04.2,0675.7,31.1
2021-07-02T21:55:00Z,00000200,00000000,0000.92,0000.57,0000.03,0000.31,0000.06,-000.16,0000.26,0000.13,0000.04,19.3,25.6,06.1,04.2,0675.7,31.2
2021-07-02T21:56:00Z,00000200,00000000,0000.71,0000.88,0000.37,0000.51,-000.07,0000.32,-000.04,-000.19,-000.22,19.4,25.6,06.1,04.2,0675.8,31.2
2021-07-02T21:57:00Z,00000200,40000000,,,,,,,0000.32,0000.19,0000.38,19.4,25.6,06.3,04.3,0675.7,31.2
2021-07-02T21:58:00Z,00000200,60000000,,,,,,,-000.29,-000.10,-000.04,19.2,25.8,05.9,03.9,0674.8,31.2
2021-07-02T21:59:00Z,00000200,20000000,,,,,,,0000.15,-000.33,-000.15,19.2,25.9,05.9,03.9,0674.7,31.2
